Regional Weather Roundup
Issued by NWS Sterling, VA

Home | Current Version | Previous Version | Text Only | Print | Product List | Glossary On
Versions: 1 2 3 4 5 6 7 8 9 10 11 12 13 14 15 16 17 18 19 20 21 22 23 24 25 26 27
000
ASUS41 KLWX 240611
RWRLWX

REGIONAL WEATHER ROUNDUP
NATIONAL WEATHER SERVICE BALTIMORE MD/WASHINGTON DC
200 AM EDT WED MAY 24 2017

Note: "FAIR" indicates few or no clouds below 12,000 feet
with no significant weather and/or obstructions to visibility.
 TC=TEMPERATURE CELSIUS

 * =Non NWS site. Station does not report precipitation (e.g. rain,
    snow, etc.), thunder, or fog.

DCZ001-MDZ009-015-VAZ040>042-051-053>054-240700-
WASHINGTON METRO

CITY           SKY/WX    TMP DP  RH WIND       PRES   REMARKS
WASHINGTON NAT LGT RAIN  61  58  90 N12       29.73F
DULLES         LGT RAIN  59  57  93 N7        29.73F FOG
ANDREWS AFB    CLOUDY    58  55  91 NE8       29.71F
FT BELVOIR     LGT RAIN  59  56  92 CALM      29.72F
QUANTICO       CLOUDY    59  57  93 N7        29.73F
COLLEGE PARK*  CLOUDY    57  55  92 CALM      29.73F
LEESBURG*      LGT RAIN  59  59 100 NE7       29.75F
MANASSAS*      LGT RAIN  59  58  96 NW5       29.74F
GAITHERSBURG*  RAIN      58  58 100 NE3       29.74F FOG

$$

MDZ006>007-011-014-240700-
BALTIMORE METRO

CITY           SKY/WX    TMP DP  RH WIND       PRES   REMARKS
BWI AIRPORT    RAIN      58  58 100 NE3       29.73F
MD SCIENCE CTR   N/A     62  58  86 MISG      29.74F
MARTIN STATE   LGT RAIN  59  59 100 CALM      29.76S
ANNAPOLIS      LGT RAIN  61  57  87 N5        29.72F
FORT MEADE*    CLOUDY    57  54  88 CALM      29.76F

$$

MDZ012-015-019>023-240700-
MARYLAND EASTERN SHORE

CITY           SKY/WX    TMP DP  RH WIND       PRES   REMARKS
OCEAN CITY     RAIN      58  57  97 N9        29.69S FOG
SALISBURY      RAIN      57  57 100 N9        29.69F FOG
BAY BRIDGE AP* LGT RAIN  59  55  88 CALM      29.73F
CAMBRIDGE*     CLOUDY    57  55  94 N7        29.71F
EASTON*        CLOUDY    59  55  87 NE6       29.75F

$$

MDZ017>025-240700-
SOUTHERN MARYLAND

CITY           SKY/WX    TMP DP  RH WIND       PRES   REMARKS
PATUXENT RIVER RAIN      58  58 100 NE9       29.70F FOG
ST INIGOES     LGT RAIN  59  57  93 NE7       29.70F
LEONARDTOWN*   CLOUDY    57  55  94 CALM      29.72F

$$

MDZ003>005-240700-
NORTH CENTRAL MARYLAND

CITY           SKY/WX    TMP DP  RH WIND       PRES   REMARKS
FREDERICK*     RAIN      59  59 100 CALM      29.77F
HAGERSTOWN APT LGT RAIN  58  56  93 E3        29.73F FOG
WESTMINSTER*   RAIN      59  57  94 NE5       29.74F

$$

MDZ501>502-240700-
WESTERN MARYLAND

CITY           SKY/WX    TMP DP  RH WIND       PRES   REMARKS
OAKLAND*       FOG       50  50 100 SE10      29.72S VSB 1/2
CUMBERLAND*    CLOUDY    55  55 100 CALM      29.77F

$$

VAZ025>031-240700-
SHENANDOAH VALLEY

CITY           SKY/WX    TMP DP  RH WIND       PRES   REMARKS
WINCHESTER*    LGT RAIN  54  54 100 NE3       29.74F
FRONT ROYAL*   CLOUDY    55  55 100 CALM      29.73F
LURAY*         RAIN      55  55 100 NE5       29.74F
NEW MARKET*    CLOUDY    56  55  95 N6        29.73F
STAUNTON*      RAIN      56  55  97 N6        29.75S
WAYNESBORO*    CLOUDY    56  56 100 N9        29.74R

$$

WVZ021-048>050-054>055-240700-
EASTERN WEST VIRGINIA PANHANDLE

CITY           SKY/WX    TMP DP  RH WIND       PRES   REMARKS
MARTINSBURG    LGT RAIN  57  56  96 CALM      29.73F FOG
PETERSBURG*    RAIN      58  57  98 CALM      29.74F

$$

VAZ036>039-050-240700-
CENTRAL FOOTHILLS

CITY           SKY/WX    TMP DP  RH WIND       PRES   REMARKS
CHARLOTTESVILL RAIN      60  58  92 NE8       29.72F FOG
CULPEPER*      RAIN      58  57  99 N3        29.74F
ORANGE*        LGT RAIN  55  54  94 CALM      29.74S
GORDONSVILLE*  CLOUDY    58  58 100 NE7       29.72F
WARRENTON*     RAIN      59  55  88 CALM      29.73S

$$

VAZ055>057-240700-
NORTH AND CENTRAL PIEDMONT

CITY           SKY/WX    TMP DP  RH WIND       PRES   REMARKS
FREDERICKSBRG* CLOUDY    58  58 100 N5        29.72S
STAFFORD*      DRIZZLE   56  56 100 N3        29.77S

$$

NCZ024-NYZ072-PAZ021-071-VAZ022-071-240700-
OTHER REGIONAL OBSERVATIONS

CITY           SKY/WX    TMP DP  RH WIND       PRES   REMARKS
NEW YORK CITY  CLOUDY    60  48  64 NE3       29.77F
PHILADELPHIA   LGT RAIN  58  52  80 E7        29.75S
PITTSBURGH     CLOUDY    60  54  80 CALM      29.70S
ROANOKE        CLOUDY    58  57  97 NE3       29.73F
RICHMOND       LGT RAIN  59  58  96 NE9       29.68F FOG
RALEIGH        CLOUDY    66  65  96 CALM      29.68R FOG

$$

ANZ530>537-240700-
MARINE OBSERVATIONS

STATION/POSITION TIME  TEMP    WIND        PRES
                       AIR SEA DIR/SP/G
                 (UTC) (F)     (DEG/KT/KT) (MB)
THOMAS PT LIGHT  0600   61 65   20/ 10/ 12   N/A
BALT KEY BRIDGE  0548   60     360/  4/  5 1007.0F
COVE POINT       0548   58      60/ 12/ 15 1006.6F
LEWISETTA        0548   60 67   50/  9/ 14 1005.5S
SOLOMONS ISLAND  0542   58 67   10/  7/  9   N/A
PINEY POINT      0548           70/  7/  8   N/A

$$





USA.gov is the U.S. government's official web portal to all federal, state and local government web resources and services.